OE3AJC-13 Weather Reports


Display with metric or nautical units.
time (UTC)temp
F
wind
direction
speed
MPH
gust
MPH
rain 1hr
in
rain 24hr
in
rain mn
in
humidity
%
barometer
mb
20260507044307 53 243 1.0 2.0 0.00 0.00 0.00 73 1010.2
20260507043306 53 208 0.0 2.0 0.00 0.00 0.00 73 1010.3
20260507042307 53 230 0.0 0.0 0.00 0.00 0.00 73 1010.0
20260507041305 53 218 2.0 3.0 0.00 0.00 0.00 74 1009.8
20260507040304 53 215 0.0 3.0 0.00 0.00 0.00 74 1009.6
20260507035306 52 163 2.0 3.0 0.00 0.00 0.00 74 1009.6
20260507034303 53 233 1.0 2.0 0.00 0.00 0.00 74 1009.5
20260507033302 53 234 0.0 0.0 0.00 0.00 0.00 74 1009.5
20260507032305 53 141 2.0 3.0 0.00 0.00 0.00 73 1009.5
20260507031301 53 195 2.0 3.0 0.00 0.00 0.00 74 1009.5
20260507030300 53 219 0.0 1.0 0.00 0.00 0.00 74 1009.4
20260507025259 53 185 1.0 2.0 0.00 0.00 0.00 74 1009.2
20260507024258 53 241 0.0 1.0 0.00 0.00 0.00 75 1009.1
20260507023258 53 231 0.0 0.0 0.00 0.00 0.00 75 1009.2
20260507022257 53 227 0.0 0.0 0.00 0.00 0.00 75 1009.0
20260507021256 53 231 1.0 2.0 0.00 0.00 0.00 75 1009.0
20260507020256 53 224 0.0 0.0 0.00 0.00 0.00 75 1009.2
20260507015255 53 237 2.0 3.0 0.00 0.00 0.00 75 1008.8
20260507014254 53 234 0.0 1.0 0.00 0.00 0.00 76 1008.7
20260507013254 54 232 0.0 1.0 0.00 0.00 0.00 75 1008.7
20260507012253 54 240 3.0 5.0 0.00 0.00 0.00 75 1008.7
20260507010251 54 232 2.0 2.0 0.00 0.00 0.00 76 1008.7
20260507005250 54 248 2.0 4.0 0.00 0.00 0.00 76 1008.7
20260507004250 54 228 0.0 0.0 0.00 0.00 0.00 76 1008.3
20260507003249 54 236 1.0 3.0 0.00 0.00 0.00 76 1008.4
20260507002248 55 237 0.0 1.0 0.00 0.00 0.00 75 1008.4
20260507001247 55 226 0.0 0.0 0.00 0.00 0.00 75 1008.2
20260507000247 55 263 1.0 3.0 0.00 0.00 0.00 75 1008.2
20260506235246 55 238 2.0 3.0 0.00 0.00 0.00 74 1008.0
20260506234245 55 258 2.0 4.0 0.00 0.00 0.00 75 1008.0
20260506233245 55 231 0.0 0.0 0.00 0.00 0.00 74 1007.9
20260506232244 56 235 0.0 0.0 0.00 0.00 0.00 74 1007.9
20260506231243 56 231 0.0 0.0 0.00 0.00 0.00 73 1008.0
20260506225241 56 220 0.0 2.0 0.00 0.00 0.00 73 1007.5
20260506224241 56 258 7.0 10.0 0.00 0.00 0.00 73 1007.6
20260506223240 56 247 4.0 5.0 0.00 0.00 0.00 74 1007.5
20260506222239 57 232 3.0 3.0 0.00 0.00 0.00 74 1007.4
20260506221239 57 253 3.0 4.0 0.00 0.00 0.00 75 1007.2
20260506220238 57 243 2.0 3.0 0.00 0.00 0.00 74 1006.4
20260506215237 57 244 1.0 2.0 0.00 0.00 0.00 73 1006.7
20260506214237 57 223 2.0 3.0 0.00 0.00 0.00 72 1006.2
20260506213236 58 232 0.0 0.0 0.00 0.00 0.00 71 1005.9
20260506212235 58 248 3.0 4.0 0.00 0.00 0.00 71 1006.0
20260506211234 59 229 1.0 2.0 0.00 0.00 0.00 70 1005.8
20260506210231 59 253 5.0 6.0 0.00 0.00 0.00 70 1005.7
20260506205230 59 241 6.0 6.0 0.00 0.00 0.00 69 1005.7
20260506204229 59 251 3.0 4.0 0.00 0.00 0.00 68 1005.8
20260506203228 60 270 9.0 12.0 0.00 0.00 0.00 68 1005.5
20260506202228 60 259 7.0 10.0 0.00 0.00 0.00 68 1005.4
20260506201227 60 246 8.0 14.0 0.00 0.00 0.00 67 1005.4
20260506200226 61 250 10.0 13.0 0.00 0.00 0.00 64 1005.6
20260506195226 62 265 6.0 11.0 0.00 0.00 0.00 56 1005.2
20260506194225 62 224 2.0 2.0 0.00 0.00 0.00 52 1004.5
20260506193224 64 190 2.0 3.0 0.00 0.00 0.00 50 1004.1
20260506192223 64 207 1.0 1.0 0.00 0.00 0.00 49 1004.1
20260506191223 63 207 0.0 1.0 0.00 0.00 0.00 49 1004.0
20260506190222 64 225 0.0 0.0 0.00 0.00 0.00 51 1003.7
20260506185221 68 231 0.0 0.0 0.00 0.00 0.00 44 1003.4
20260506184221 69 173 2.0 3.0 0.00 0.00 0.00 40 1003.3
20260506183220 69 182 2.0 4.0 0.00 0.00 0.00 40 1002.8
20260506182219 68 214 1.0 2.0 0.00 0.00 0.00 41 1002.6
20260506181215 69 160 1.0 2.0 0.00 0.00 0.00 41 1002.5
20260506180215 69 193 2.0 3.0 0.00 0.00 0.00 41 1003.0
20260506175214 70 194 1.0 2.0 0.00 0.00 0.00 42 1002.7
20260506174213 71 192 2.0 3.0 0.00 0.00 0.00 41 1002.6
20260506173212 71 182 3.0 4.0 0.00 0.00 0.00 40 1002.6
20260506172212 72 188 2.0 3.0 0.00 0.00 0.00 40 1002.5
20260506171211 74 139 4.0 6.0 0.00 0.00 0.00 36 1002.5
20260506170210 75 191 3.0 4.0 0.00 0.00 0.00 37 1002.7
20260506165210 75 156 1.0 4.0 0.00 0.00 0.00 37 1002.5
20260506164209 75 204 2.0 2.0 0.00 0.00 0.00 38 1002.7
20260506163208 74 120 5.0 9.0 0.00 0.00 0.00 38 1003.0
20260506161207 75 179 1.0 2.0 0.00 0.00 0.00 37 1003.2
20260506160206 75 218 2.0 3.0 0.00 0.00 0.00 37 1003.1
20260506155205 75 158 2.0 3.0 0.00 0.00 0.00 39 1003.4
20260506154205 75 207 1.0 1.0 0.00 0.00 0.00 39 1003.6
20260506153204 74 138 2.0 5.0 0.00 0.00 0.00 38 1003.7
20260506152203 74 120 3.0 3.0 0.00 0.00 0.00 40 1003.9
20260506151202 74 170 2.0 3.0 0.00 0.00 0.00 40 1004.0
20260506150202 73 206 4.0 4.0 0.00 0.00 0.00 41 1003.9
20260506143159 72 188 2.0 3.0 0.00 0.00 0.00 47 1004.6
20260506142159 73 171 1.0 2.0 0.00 0.00 0.00 42 1004.4
20260506141158 73 150 3.0 5.0 0.00 0.00 0.00 42 1004.3
20260506135156 75 167 4.0 4.0 0.00 0.00 0.00 40 1004.8
20260506134156 72 199 3.0 4.0 0.00 0.00 0.00 43 1004.7
20260506132154 73 170 4.0 4.0 0.00 0.00 0.00 41 1004.8
20260506125152 73 135 2.0 3.0 0.00 0.00 0.00 41 1005.4
20260506123151 74 108 7.0 12.0 0.00 0.00 0.00 41 1005.7
20260506121149 73 137 6.0 6.0 0.00 0.00 0.00 42 1005.9
20260506120148 72 117 6.0 10.0 0.00 0.00 0.00 43 1005.8
20260506114147 71 154 6.0 6.0 0.00 0.00 0.00 43 1006.1
20260506113146 71 154 6.0 6.0 0.00 0.00 0.00 43 1006.1
20260506110144 72 142 4.0 4.0 0.00 0.00 0.00 41 1006.6
20260506105135 70 135 4.0 5.0 0.00 0.00 0.00 44 1006.5
20260506104134 70 220 4.0 6.0 0.00 0.00 0.00 44 1006.7
20260506103134 70 231 0.0 1.0 0.00 0.00 0.00 44 1006.8
20260506102133 71 232 0.0 0.0 0.00 0.00 0.00 43 1006.9
20260506101132 69 226 0.0 0.0 0.00 0.00 0.00 44 1006.9
20260506100131 70 202 2.0 3.0 0.00 0.00 0.00 43 1007.0
20260506095131 72 169 2.0 3.0 0.00 0.00 0.00 41 1007.2
20260506094130 71 192 1.0 2.0 0.00 0.00 0.00 44 1007.5
20260506093129 70 241 0.0 2.0 0.00 0.00 0.00 47 1007.0
20260506092128 70 307 2.0 3.0 0.00 0.00 0.00 47 1007.6
20260506091128 70 219 2.0 3.0 0.00 0.00 0.00 48 1007.5
20260506090127 69 114 2.0 3.0 0.00 0.00 0.00 50 1007.4
20260506085126 69 133 1.0 2.0 0.00 0.00 0.00 50 1007.6
20260506084125 70 185 3.0 4.0 0.00 0.00 0.00 49 1007.8
20260506083125 69 243 1.0 2.0 0.00 0.00 0.00 50 1007.8
20260506081123 67 217 0.0 0.0 0.00 0.00 0.00 52 1007.7
20260506080122 66 179 2.0 3.0 0.00 0.00 0.00 54 1007.7
20260506073117 64 225 1.0 2.0 0.00 0.00 0.00 59 1008.0
20260506072117 64 147 2.0 2.0 0.00 0.00 0.00 59 1008.2
20260506071116 63 188 1.0 2.0 0.00 0.00 0.00 60 1008.0
20260506070115 64 171 3.0 4.0 0.00 0.00 0.00 59 1008.2
20260506062112 63 187 2.0 4.0 0.00 0.00 0.00 64 1008.1
20260506061112 61 216 2.0 4.0 0.00 0.00 0.00 65 1008.1
20260506060111 61 210 2.0 3.0 0.00 0.00 0.00 66 1007.9
20260506050106 54 208 0.0 1.0 0.00 0.00 0.00 80 1008.1
20260506045106 53 200 0.0 1.0 0.00 0.00 0.00 83 1008.0